Location: Newark
(35.6799°N, 139.7636°E)
Time: 09:35:50
(UTC+00:00)

Explorer 7 - Pass Details

Date: 15 December 2019
Orbit: 485 x 679 km, 50.3° (Epoch: 21 January)

Event Time Altitude Azimuth Distance (km) Brightness Sun altitude
Rises 05:32:06 0° 262° (W) 2,934 11.3 17.8°
Reaches altitude 10° 05:34:39 10° 274° (W) 2,053 10.4 17.5°
Maximum altitude 05:38:47 29° 334° (NNW) 1,230 8.5 16.9°
Drops below altitude 10° 05:43:01 10° 34° (NE) 2,113 9.3 16.3°
Sets 05:45:42 0° 46° (NE) 3,035 10.0 15.9°
